This is the latest recevied weather packets stored in our database for station/object AA1FF. If no packets are shown the sender has not sent any weather packets the latest 10 day(s).
| Time | Temp. | Humidity | Pressure | Rain* | Wind** | Luminosity | Snow |
|---|---|---|---|---|---|---|---|
| 1777900126 | 13.89° C | 44% | 1011 hPa | 0 mm | - | 527 W/m² | - |
| 1777899830 | 13.89° C | 45% | 1011 hPa | 0 mm | - | 510 W/m² | - |
| 1777899525 | 13.33° C | 46% | 1011 hPa | 0 mm | - | 494 W/m² | - |
| 1777899228 | 13.33° C | 46% | 1011 hPa | 0 mm | - | 477 W/m² | - |
| 1777898928 | 13.33° C | 47% | 1012 hPa | 0 mm | - | 460 W/m² | - |
| 1777898626 | 12.78° C | 46% | 1012 hPa | 0 mm | - | 446 W/m² | - |
| 1777898325 | 12.78° C | 47% | 1012 hPa | 0 mm | - | 425 W/m² | - |
| 1777898027 | 12.22° C | 48% | 1012 hPa | 0 mm | - | 404 W/m² | - |
| 1777897729 | 12.22° C | 49% | 1012 hPa | 0 mm | - | 403 W/m² | - |
| 1777897426 | 12.22° C | 49% | 1012 hPa | 0 mm | - | 370 W/m² | - |
| 1777897125 | 12.22° C | 45% | 1012 hPa | 0 mm | - | 412 W/m² | - |
| 1777896826 | 11.67° C | 46% | 1012 hPa | 0 mm | - | 376 W/m² | - |
| 1777896238 | 10.56° C | 48% | 1012 hPa | 0 mm | - | 181 W/m² | - |
| 1777895924 | 9.44° C | 53% | 1012 hPa | 0 mm | - | 91 W/m² | - |
| 1777895623 | 8.33° C | 58% | 1012 hPa | 0 mm | - | 90 W/m² | - |
| 1777895325 | 7.78° C | 62% | 1012 hPa | 0 mm | - | 86 W/m² | - |
| 1777895025 | 7.22° C | 65% | 1012 hPa | 0 mm | - | 90 W/m² | - |
| 1777894727 | 6.67° C | 67% | 1012 hPa | 0 mm | - | 77 W/m² | - |
| 1777894427 | 6.11° C | 67% | 1012 hPa | 0 mm | - | 75 W/m² | - |
| 1777894126 | 5.56° C | 70% | 1012 hPa | 0 mm | - | 79 W/m² | - |
| 1777893825 | 5° C | 74% | 1012 hPa | 0 mm | - | 67 W/m² | - |
| 1777893526 | 4.44° C | 74% | 1012 hPa | 0 mm | - | 64 W/m² | - |
| 1777893229 | 4.44° C | 74% | 1012 hPa | 0 mm | - | 64 W/m² | - |
| 1777892926 | 4.44° C | 75% | 1012 hPa | 0 mm | - | 59 W/m² | - |
| 1777892625 | 3.89° C | 77% | 1012 hPa | 0 mm | - | 63 W/m² | - |
* Rain latest hour (hover to see other rain measurements)
** Current wind speed in m/s (hover to see current wind gust speed)